Latest Weather Observations for Brisbane

IDQ60901

Issued at 10:55 pm EST Monday 20 October 2014 (issued every 10 minutes, with the page automatically refreshed every 10 minutes)

About weather observations | Map of Brisbane area stations | Latest observations for Brisbane area | Other Formats
Station Details ID: 040913 Name: BRISBANE Lat: -27.48 Lon: 153.04 Height: 8.13 m
Data from the previous 72 hours. | See also: Recent months at Brisbane
Date/Time
EST
Tmp

°C
App
Tmp
°C
Dew
Point
°C
Rel
Hum
%
Delta-T

°C
Wind Press
QNH
hPa
Press
MSL
hPa
Rain
since
9 am
mm
Dir
 
Spd
km/h
Gust
km/h
Spd
kts
Gust
kts
20/10:30pm 18.5 19.3 12.7 69 3.2 CALM 0 4 0 2 1027.0 1027.0 0.0
20/10:00pm 19.1 19.7 13.1 68 3.4 SSE 2 4 1 2 1027.0 1027.0 0.0
20/09:30pm 19.5 19.4 13.4 68 3.5 SE 6 9 3 5 1027.0 1027.0 0.0
20/09:00pm 19.2 19.7 12.9 67 3.5 SE 2 4 1 2 1026.8 1026.8 0.0
20/08:30pm 19.5 20.1 13.0 66 3.7 ESE 2 7 1 4 1026.5 1026.5 0.0
20/08:00pm 20.0 20.2 13.0 64 3.9 ESE 4 7 2 4 1026.1 1026.1 0.0
20/07:30pm 20.1 20.3 13.1 64 4.0 E 4 7 2 4 1025.6 1025.6 0.0
20/07:00pm 20.8 20.4 13.0 61 4.4 E 7 17 4 9 1025.0 1025.0 0.0
20/06:30pm 21.1 20.4 13.3 61 4.5 ENE 9 17 5 9 1024.3 1024.3 0.0
20/06:00pm 21.6 20.8 13.0 58 4.9 E 9 15 5 8 1023.7 1023.7 0.0
20/05:30pm 22.4 22.2 13.5 57 5.1 NE 7 15 4 8 1023.2 1023.2 0.0
20/05:00pm 23.1 22.0 13.0 53 5.8 ENE 11 17 6 9 1022.6 1022.6 0.0
20/04:30pm 23.8 22.6 12.8 50 6.3 ENE 11 19 6 10 1022.3 1022.3 0.0
20/04:00pm 24.3 23.1 12.9 49 6.6 ENE 11 19 6 10 1022.0 1022.0 0.0
20/03:30pm 24.6 23.3 12.5 46 6.9 ENE 11 19 6 10 1021.9 1021.9 0.0
20/03:00pm 24.7 23.0 12.3 46 7.1 ENE 13 20 7 11 1021.7 1021.7 0.0
20/02:30pm 25.1 23.3 12.0 44 7.5 NE 13 19 7 10 1021.8 1021.8 0.0
20/02:00pm 25.0 23.5 11.9 44 7.4 NE 11 24 6 13 1021.9 1021.9 0.0
20/01:30pm 25.8 24.5 11.2 40 8.3 NNE 9 20 5 11 1022.3 1022.3 0.0
20/01:00pm 25.2 23.6 11.7 43 7.6 ENE 11 22 6 12 1022.7 1022.7 0.0
20/12:30pm 25.1 23.6 10.6 40 8.1 NNE 9 19 5 10 1023.0 1023.0 0.0
20/12:00pm 25.3 23.7 11.5 42 7.8 ENE 11 17 6 9 1023.4 1023.4 0.0
20/11:30am 25.0 23.8 11.6 43 7.6 NE 9 17 5 9 1023.9 1023.9 0.0
20/11:00am 24.9 24.0 12.5 46 7.1 NE 9 13 5 7 1024.3 1024.3 0.0
20/10:30am 24.1 23.4 12.1 47 6.8 NE 7 15 4 8 1024.8 1024.8 0.0
20/10:00am 23.8 23.0 11.2 45 7.0 N 6 11 3 6 1025.3 1025.3 0.0
20/09:30am 23.7 23.5 11.7 47 6.8 NE 4 9 2 5 1025.4 1025.4 0.0
20/09:00am 22.4 22.0 11.2 49 6.2 SSE 4 7 2 4 1025.6 1025.6 0.0
20/08:30am 22.0 21.8 11.7 52 5.8 NE 4 7 2 4 1025.8 1025.8 0.0
20/08:00am 20.9 21.1 11.8 56 5.0 SW 2 6 1 3 1025.8 1025.8 0.0
20/07:30am 19.4 19.2 11.7 61 4.2 SW 4 7 2 4 1025.8 1025.8 0.0
20/07:00am 18.0 17.7 11.3 65 3.6 SSW 4 9 2 5 1025.6 1025.6 0.0
20/06:30am 16.9 16.6 11.6 71 2.9 SSW 4 9 2 5 1025.4 1025.4 0.0
20/06:00am 15.7 15.5 11.7 77 2.2 SW 4 7 2 4 1025.2 1025.2 0.0
20/05:30am 14.8 14.9 11.6 81 1.7 SW 2 6 1 3 1024.9 1024.9 0.0
20/05:00am 14.5 14.2 11.3 81 1.7 SW 4 7 2 4 1024.8 1024.8 0.0
20/04:30am 14.4 14.5 11.4 82 1.6 SW 2 4 1 2 1024.7 1024.7 0.0
20/04:00am 14.7 14.9 11.7 82 1.6 W 2 4 1 2 1024.6 1024.6 0.0
20/03:30am 15.3 15.2 12.2 82 1.7 WSW 4 7 2 4 1024.5 1024.5 0.0
20/03:00am 15.3 15.6 12.1 81 1.7 W 2 6 1 3 1024.4 1024.4 0.0
20/02:30am 15.5 15.8 12.3 81 1.7 SW 2 6 1 3 1024.6 1024.6 0.0
20/02:00am 15.5 16.3 12.6 83 1.6 CALM 0 4 0 2 1024.7 1024.7 0.0
20/01:30am 15.6 16.1 12.7 83 1.6 SW 2 4 1 2 1024.9 1024.9 0.0
20/01:00am 14.8 15.4 11.9 83 1.6 CALM 0 0 0 0 1025.4 1025.4 0.0
20/12:30am 14.8 15.4 11.8 82 1.6 CALM 0 0 0 0 1025.7 1025.7 0.0
20/12:00am 15.5 16.2 12.3 81 1.7 SE 0 0 0 0 1025.9 1025.9 0.0
 
Date/Time
EST
Tmp

°C
App
Tmp
°C
Dew
Point
°C
Rel
Hum
%
Delta-T

°C
Wind Press
QNH
hPa
Press
MSL
hPa
Rain
since
9 am
mm
Dir
 
Spd
km/h
Gust
km/h
Spd
kts
Gust
kts
19/11:30pm 15.3 15.9 11.9 80 1.8 CALM 0 0 0 0 1026.2 1026.2 0.0
19/11:00pm 15.5 16.0 11.5 77 2.1 CALM 0 0 0 0 1026.4 1026.4 0.0
19/10:30pm 16.0 16.1 11.6 75 2.4 ESE 2 4 1 2 1026.5 1026.5 0.0
19/10:00pm 16.5 16.9 11.2 71 2.8 CALM 0 2 0 1 1026.5 1026.5 0.0
19/09:30pm 17.6 17.7 11.6 68 3.3 ESE 2 4 1 2 1026.5 1026.5 0.0
19/09:00pm 18.2 18.3 11.5 65 3.6 E 2 4 1 2 1026.3 1026.3 0.0
19/08:30pm 18.7 18.4 11.5 63 3.9 E 4 7 2 4 1026.2 1026.2 0.0
19/08:00pm 19.1 18.4 11.4 61 4.2 E 6 7 3 4 1026.1 1026.1 0.0
19/07:30pm 19.4 18.6 11.2 59 4.5 E 6 9 3 5 1025.9 1025.9 0.0
19/07:00pm 19.7 18.9 10.9 57 4.8 E 6 7 3 4 1025.7 1025.7 0.0
19/06:30pm 20.2 19.2 11.1 56 5.0 E 7 13 4 7 1025.2 1025.2 0.0
19/06:00pm 20.6 18.8 11.0 54 5.2 E 11 24 6 13 1024.7 1024.7 0.0
19/05:30pm 21.3 19.6 11.1 52 5.6 E 11 19 6 10 1024.3 1024.3 0.0
19/05:00pm 22.3 20.3 11.4 50 6.0 E 13 22 7 12 1023.9 1023.9 0.0
19/04:30pm 22.7 20.7 11.4 49 6.3 E 13 20 7 11 1023.5 1023.5 0.0
19/04:00pm 23.3 21.0 11.7 48 6.5 E 15 24 8 13 1023.2 1023.2 0.0
19/03:30pm 24.5 22.7 12.1 46 7.1 E 13 20 7 11 1023.2 1023.2 0.0
19/03:00pm 24.5 21.9 12.1 46 7.0 E 17 26 9 14 1023.2 1023.2 0.0
19/02:30pm 24.5 21.7 12.5 47 6.9 E 19 30 10 16 1023.5 1023.5 0.0
19/02:00pm 25.2 23.0 12.1 44 7.5 E 15 24 8 13 1023.6 1023.6 0.0
19/01:30pm 24.9 22.8 12.5 46 7.1 ENE 15 24 8 13 1024.1 1024.1 0.0
19/01:00pm 25.2 23.0 12.1 44 7.5 E 15 28 8 15 1024.5 1024.5 0.0
19/12:30pm 25.0 24.1 11.2 42 7.8 E 7 15 4 8 1025.0 1025.0 0.0
19/12:00pm 25.7 23.9 9.5 36 8.8 SE 9 17 5 9 1025.3 1025.3 0.0
19/11:30am 24.6 22.8 9.3 38 8.3 ENE 9 20 5 11 1025.8 1025.8 0.0
19/11:00am 24.8 23.4 9.5 38 8.3 ESE 7 15 4 8 1026.3 1026.3 0.0
19/10:30am 23.6 22.4 10.3 43 7.3 E 7 13 4 7 1026.7 1026.7 0.0
19/10:00am 23.6 22.3 9.9 42 7.4 E 7 19 4 10 1027.1 1027.1 0.0
19/09:30am 23.7 22.7 10.4 43 7.3 S 6 15 3 8 1027.4 1027.4 0.0
19/09:00am 23.1 22.3 11.2 47 6.6 SE 6 15 3 8 1027.7 1027.7 0.0
19/08:30am 22.8 22.0 11.2 48 6.5 S 6 11 3 6 1027.9 1027.9 0.0
19/08:00am 21.2 20.8 12.3 57 5.0 SSW 6 11 3 6 1027.9 1027.9 0.0
19/07:30am 19.8 19.7 12.1 61 4.3 SW 4 9 2 5 1027.7 1027.7 0.0
19/07:00am 18.4 18.3 12.2 67 3.4 SW 4 7 2 4 1027.7 1027.7 0.0
19/06:30am 17.5 17.4 12.2 71 2.9 SW 4 9 2 5 1027.2 1027.2 0.0
19/06:00am 16.4 16.3 12.2 76 2.3 SW 4 7 2 4 1027.0 1027.0 0.0
19/05:30am 15.4 15.3 12.2 81 1.7 SW 4 7 2 4 1026.7 1026.7 0.0
19/05:00am 15.4 15.3 12.0 80 1.8 WSW 4 7 2 4 1026.3 1026.3 0.0
19/04:30am 15.6 15.5 12.0 79 2.0 WSW 4 7 2 4 1026.1 1026.1 0.0
19/04:00am 15.7 15.9 11.7 77 2.2 SW 2 7 1 4 1025.8 1025.8 0.0
19/03:30am 16.0 15.8 11.8 76 2.3 SW 4 7 2 4 1025.7 1025.7 0.0
19/03:00am 16.3 16.5 11.7 74 2.5 SW 2 7 1 4 1025.7 1025.7 0.0
19/02:30am 16.7 16.5 11.8 73 2.7 SW 4 7 2 4 1025.7 1025.7 0.0
19/02:00am 17.1 17.5 12.4 74 2.6 WSW 2 4 1 2 1025.8 1025.8 0.0
19/01:30am 17.4 17.9 12.9 75 2.5 WSW 2 4 1 2 1025.9 1025.9 0.0
19/01:00am 17.5 17.7 13.0 75 2.5 SW 4 7 2 4 1026.2 1026.2 0.0
19/12:30am 17.8 18.0 12.9 73 2.7 S 4 7 2 4 1026.5 1026.5 0.0
19/12:00am 17.7 17.9 13.2 75 2.5 S 4 7 2 4 1026.7 1026.7 0.0
 
Date/Time
EST
Tmp

°C
App
Tmp
°C
Dew
Point
°C
Rel
Hum
%
Delta-T

°C
Wind Press
QNH
hPa
Press
MSL
hPa
Rain
since
9 am
mm
Dir
 
Spd
km/h
Gust
km/h
Spd
kts
Gust
kts
18/11:30pm 17.6 17.8 12.9 74 2.6 SSE 4 7 2 4 1027.0 1027.0 0.0
18/11:00pm 17.4 17.9 12.7 74 2.6 SSE 2 6 1 3 1027.1 1027.1 0.0
18/10:30pm 17.8 18.3 12.9 73 2.7 SE 2 6 1 3 1027.2 1027.2 0.0
18/10:00pm 18.4 19.1 13.3 72 2.9 SSE 2 6 1 3 1027.2 1027.2 0.0
18/09:30pm 18.9 18.8 13.3 70 3.2 SE 6 11 3 6 1027.2 1027.2 0.0
18/09:00pm 19.0 18.9 13.2 69 3.3 SE 6 9 3 5 1027.1 1027.1 0.0
18/08:30pm 19.3 19.3 13.7 70 3.2 ESE 6 9 3 5 1027.0 1027.0 0.0
18/08:00pm 19.5 19.4 13.9 70 3.2 ESE 7 15 4 8 1026.9 1026.9 0.0
18/07:30pm 19.9 19.9 13.6 67 3.6 ESE 6 13 3 7 1026.7 1026.7 0.0
18/07:00pm 20.1 19.9 13.6 66 3.7 ESE 7 15 4 8 1026.3 1026.3 0.0
18/06:30pm 20.2 18.9 13.6 66 3.8 ESE 13 22 7 12 1025.9 1025.9 0.0
18/06:00pm 20.3 19.1 14.0 67 3.6 ESE 13 24 7 13 1025.3 1025.3 0.0
18/05:30pm 20.9 19.7 14.1 65 3.9 ESE 13 24 7 13 1024.8 1024.8 0.0
18/05:00pm 21.2 19.6 12.9 59 4.7 ESE 13 26 7 14 1024.2 1024.2 0.0
18/04:30pm 22.2 19.9 11.9 52 5.8 ESE 15 28 8 15 1023.9 1023.9 0.0
18/04:00pm 22.9 20.3 11.9 50 6.2 ESE 17 28 9 15 1023.5 1023.5 0.0
18/03:30pm 23.4 20.7 13.0 52 6.0 E 19 33 10 18 1023.3 1023.3 0.0
18/03:00pm 24.0 21.7 11.7 46 6.9 ESE 15 26 8 14 1023.3 1023.3 0.0
18/02:30pm 24.3 22.0 11.9 45 7.0 ESE 15 30 8 16 1023.3 1023.3 0.0
18/02:00pm 24.2 21.3 12.2 47 6.8 E 19 32 10 17 1023.4 1023.4 0.0
18/01:30pm 25.3 23.3 11.5 42 7.8 ESE 13 24 7 13 1023.7 1023.7 0.0
18/01:00pm 26.1 23.8 11.8 41 8.1 ESE 15 28 8 15 1023.9 1023.9 0.0
18/12:30pm 24.3 22.0 11.6 45 7.2 E 15 30 8 16 1024.0 1024.0 0.0
18/12:00pm 25.3 23.2 11.1 41 8.0 ESE 13 22 7 12 1024.4 1024.4 0.0
18/11:30am 25.6 23.0 10.6 39 8.4 SE 15 26 8 14 1024.8 1024.8 0.0
18/11:00am 25.3 22.3 10.7 40 8.1 ESE 17 26 9 14 1024.9 1024.9 0.0
18/10:30am 25.3 23.0 10.4 39 8.3 ESE 13 20 7 11 1025.3 1025.3 0.0
18/10:00am 24.2 21.8 10.1 41 7.7 ESE 13 24 7 13 1025.6 1025.6 0.0
18/09:30am 23.8 21.1 10.5 43 7.4 SE 15 26 8 14 1025.8 1025.8 0.0
18/09:00am 23.2 22.0 11.6 48 6.5 S 9 17 5 9 1026.0 1026.0 0.0
18/08:30am 23.5 23.0 12.8 51 6.1 S 7 19 4 10 1025.9 1025.9 0.0
18/08:00am 21.6 20.0 11.6 53 5.5 S 11 19 6 10 1025.9 1025.9 0.0
18/07:30am 20.9 20.2 12.1 57 4.9 S 7 15 4 8 1025.7 1025.7 0.0
18/07:00am 19.4 18.9 11.9 62 4.1 SSW 6 9 3 5 1025.3 1025.3 0.0
18/06:30am 18.0 17.4 11.8 67 3.4 SW 6 11 3 6 1025.0 1025.0 0.0
18/06:00am 17.1 16.6 12.2 73 2.7 SSW 6 13 3 7 1024.7 1024.7 0.0
18/05:30am 16.3 16.3 12.3 77 2.2 SW 4 9 2 5 1024.5 1024.5 0.0
18/05:00am 16.3 15.9 12.3 77 2.2 SW 6 11 3 6 1024.1 1024.1 0.0
18/04:30am 16.3 15.8 12.1 76 2.3 SW 6 9 3 5 1023.7 1023.7 0.0
18/04:00am 16.5 16.1 12.3 76 2.3 SW 6 11 3 6 1023.4 1023.4 0.0
18/03:30am 16.7 16.2 12.0 74 2.6 SSW 6 11 3 6 1023.0 1023.0 0.0
18/03:00am 16.8 16.3 11.9 73 2.7 SW 6 9 3 5 1022.7 1022.7 0.0
18/02:30am 17.3 17.2 12.2 72 2.8 SSW 4 9 2 5 1022.7 1022.7 0.0
18/02:00am 17.9 17.5 12.4 70 3.0 SW 6 13 3 7 1022.5 1022.5 0.0
18/01:30am 18.9 19.1 13.1 69 3.3 S 4 7 2 4 1022.6 1022.6 0.0
18/01:00am 19.3 19.6 13.3 68 3.4 SE 4 9 2 5 1022.7 1022.7 0.0
18/12:30am 19.8 19.8 13.5 67 3.6 SE 6 9 3 5 1022.8 1022.8 0.0
18/12:00am 19.9 20.3 13.6 67 3.6 SSE 4 13 2 7 1022.8 1022.8 0.0
 
Date/Time
EST
Tmp

°C
App
Tmp
°C
Dew
Point
°C
Rel
Hum
%
Delta-T

°C
Wind Press
QNH
hPa
Press
MSL
hPa
Rain
since
9 am
mm
Dir
 
Spd
km/h
Gust
km/h
Spd
kts
Gust
kts
17/11:30pm 20.1 20.0 14.0 68 3.5 SSE 7 15 4 8 1022.8 1022.8 0.0
17/11:00pm 19.9 20.0 12.7 63 4.0 SSE 4 7 2 4 1022.7 1022.7 0.0

Latest Capital City Observations: Canberra | Sydney | Melbourne | Brisbane | Adelaide | Perth | Hobart | Darwin

Other Formats:

Comma delimited format used in spreadsheet applications
http://www.bom.gov.au/fwo/IDQ60901/IDQ60901.94576.axf

JavaScript Object Notation format (JSON) in row-major order
http://www.bom.gov.au/fwo/IDQ60901/IDQ60901.94576.json